Location: Poughquag
(41.6090°N, 73.6820°W)
Time: 06:57:06
(UTC-04:00)

S-56A Canister/Altair - All Passes

Search period start: 29 May 2020 00:00
Search period end: 08 June 2020 00:00
Orbit: 633 x 2499 km, 38.9° (Epoch: 28 May)

Date Brightness Start Highest point End Pass type
(mag) Time Alt. Az. Time Alt. Az. Time Alt. Az.
29 May - 04:16:30 10° S 04:20:23 18° SE 04:25:12 10° E visible
29 May - 06:16:48 10° SW 06:23:11 56° SSE 06:32:53 10° E daylight
29 May - 08:19:41 10° W 08:27:45 77° S 08:40:09 10° E daylight
29 May - 10:23:24 10° W 10:33:11 61° SSW 10:47:00 10° SE daylight
29 May - 12:28:23 10° W 12:38:33 33° SW 12:50:51 10° SSE daylight
30 May - 03:45:08 10° SSE 03:47:55 14° SE 03:51:08 10° ESE visible
30 May - 05:44:32 10° SW 05:50:26 50° SSE 05:59:15 10° E daylight
30 May - 07:47:11 10° W 07:54:42 76° S 08:06:21 10° E daylight
30 May - 09:50:43 10° W 09:59:56 64° SSW 10:13:19 10° ESE daylight
30 May - 11:55:20 10° W 12:05:15 36° SW 12:17:44 10° SSE daylight
30 May - 14:06:07 10° WSW 14:09:53 11° SW 14:13:49 10° SSW daylight
31 May - 05:12:19 10° SW 05:17:46 44° SSE 05:25:41 10° E daylight
31 May - 07:14:45 10° W 07:21:43 75° S 07:32:35 10° E daylight
31 May - 09:18:06 10° W 09:26:45 66° SSW 09:39:37 10° ESE daylight
31 May - 11:22:24 10° W 11:32:00 38° SSW 11:44:30 10° SSE daylight
31 May - 13:31:14 10° WSW 13:36:44 14° SW 13:42:40 10° SSW daylight
01 Jun - 04:40:09 10° SW 04:45:09 38° SSE 04:52:11 10° E visible
01 Jun - 06:42:20 10° WSW 06:48:50 73° S 06:58:54 10° E daylight
01 Jun - 08:45:33 10° W 08:53:37 68° SSW 09:05:53 10° ESE daylight
01 Jun - 10:49:34 10° W 10:58:46 40° SSW 11:11:10 10° SSE daylight
01 Jun - 12:57:10 10° WSW 13:03:35 16° SW 13:10:45 10° SSW daylight
02 Jun - 04:08:02 10° SSW 04:12:37 31° SSE 04:18:44 10° E visible
02 Jun - 06:09:58 10° WSW 06:16:01 70° S 06:25:17 10° E daylight
02 Jun - 08:13:03 10° W 08:20:35 69° S 08:32:10 10° ESE daylight
02 Jun - 10:16:50 10° W 10:25:35 43° SSW 10:37:46 10° SE daylight
02 Jun - 12:23:30 10° WSW 12:30:26 18° SW 12:38:26 10° S daylight
03 Jun - 03:36:01 10° SSW 03:40:07 26° SE 03:45:20 10° E visible
03 Jun - 05:37:37 10° WSW 05:43:16 66° SSE 05:51:45 10° E daylight
03 Jun - 07:40:35 10° W 07:47:36 70° S 07:58:28 10° ESE daylight
03 Jun - 09:44:09 10° W 09:52:27 45° SSW 10:04:18 10° SE daylight
03 Jun - 11:50:07 10° W 11:57:17 20° SW 12:05:51 10° S daylight
04 Jun - 03:04:04 10° SSW 03:07:38 21° SE 03:11:57 10° E visible
04 Jun - 05:05:18 10° WSW 05:10:34 61° SSE 05:18:18 10° E daylight
04 Jun - 07:08:10 10° W 07:14:41 71° S 07:24:49 10° ESE daylight
04 Jun - 09:11:34 10° W 09:19:23 47° SSW 09:30:48 10° SE daylight
04 Jun - 11:16:56 10° W 11:24:10 21° SW 11:33:04 10° S daylight
05 Jun - 02:32:14 10° S 02:35:12 17° SE 02:38:32 10° ESE visible
05 Jun - 04:33:00 10° WSW 04:37:57 55° SSE 04:44:56 10° E visible
05 Jun - 06:35:46 10° W 06:41:52 72° S 06:51:13 10° ESE daylight
05 Jun - 08:39:01 10° W 08:46:22 49° SSW 08:57:17 10° SE daylight
05 Jun - 10:43:55 10° W 10:51:04 23° SW 11:00:10 10° S daylight
06 Jun - 02:00:39 10° SSE 02:02:44 13° SE 02:04:57 10° ESE visible
06 Jun - 04:00:43 10° SW 04:05:22 49° SSE 04:11:41 10° E visible
06 Jun - 06:03:23 10° W 06:09:05 72° S 06:17:42 10° E daylight
06 Jun - 08:06:31 10° W 08:13:25 51° SSW 08:23:46 10° SE daylight
06 Jun - 10:11:02 10° W 10:18:01 25° SSW 10:27:08 10° SSE daylight
07 Jun - 03:28:26 10° SW 03:32:50 43° SSE 03:38:30 10° E visible
07 Jun - 05:31:01 10° W 05:36:21 71° S 05:44:16 10° E daylight
07 Jun - 07:34:05 10° W 07:40:31 53° SSW 07:50:16 10° SE daylight
07 Jun - 09:38:15 10° W 09:45:00 26° SSW 09:54:02 10° SSE daylight
